Flag for Colombia Weather past 2 weeks in Bogota, Colombia

Now
64 °F

Scattered showers. Scattered clouds.


Feels Like: 64 °F
Forecast: N/A
Wind: 10 mph from West

Location: Bogota / Eldorado

Current Time: Dec 19, 2014 at 5:04:55 PM

Latest Report: Dec 19, 2014 at 4:00 PM


Visibility: 5 mi

Pressure: 30.22 "Hg

Humidity: 64%

Dew point: 52 °F

Location of BogotaLocation

Historic Weather in Bogota — Graph

°F

Bogota temperature yesterday

Maximum temperature yesterday: 70 °F (at 1:00 PM)
Minimum temperature yesterday: 45 °F (at 5:00 AM)
Average temperature yesterday: 55 °F

Past Weeks' High & Low Weather Summary

 TemperatureHumidityPressure
High84 °F (Dec 16, 11:00 AM)100% (Dec 6, 6:00 PM)32.75 "Hg (Dec 6, 6:00 PM)
Low41 °F (Dec 19, 5:00 AM)38% (Dec 4, 3:00 PM)29.96 "Hg (Dec 16, 11:00 AM)
Average56 °F83%30.31 "Hg
* Reported Dec 4 3:00 PM — Dec 19 3:00 PM, Bogota, Weather by CustomWeather, © 2014

Note: Actual official high and low records may vary slightly from our data, if they occured in-between our weather recording intervals... More about our weather records

Advertising

Bogota weather history for previous 24 hours

 ConditionsComfort  
Time TempWeatherWind HumidityBarometerVisibility
3:00 PM
Dec 19
66 °FThunderstorms. Scattered clouds.12 mph60%30.22 "Hg5 mi
2:00 PM68 °FScattered clouds.10 mph53%30.24 "Hg5 mi
1:00 PM66 °FScattered clouds.5 mph49%30.27 "Hg5 mi
12:00 PM66 °FScattered clouds.3 mph49%30.29 "Hg6 mi
11:00 AM64 °FPassing clouds.5 mph56%30.32 "Hg6 mi
10:00 AM63 °FPassing clouds.7 mph64%30.34 "Hg5 mi
9:00 AM59 °FPassing clouds.7 mph72%30.33 "Hg4 mi
8:00 AM52 °FScattered clouds.5 mph94%30.33 "Hg4 mi
7:00 AM43 °FScattered clouds.5 mph100%30.30 "Hg4 mi
6:00 AM43 °FQuite cool.3 mph93%30.28 "Hg4 mi
5:00 AM41 °FQuite cool.2 mph100%30.26 "Hg5 mi
4:00 AM45 °FFog.No wind93%30.24 "HgN/A
3:00 AM46 °FFog.2 mph100%30.25 "HgN/A
2:00 AM48 °FFog.3 mph94%30.28 "HgN/A
1:00 AM48 °FPassing clouds.5 mph100%30.31 "Hg4 mi
12:00 AM52 °FFog.3 mph94%30.32 "Hg3 mi
11:00 PM
Dec 18
52 °FFog.2 mph100%30.34 "Hg2 mi
10:00 PM54 °FFog.2 mph94%30.35 "Hg1 mi
9:00 PM55 °FPassing clouds.No wind88%30.32 "Hg5 mi
8:00 PM54 °FFog.2 mph94%30.30 "Hg3 mi
7:00 PM57 °FPartly cloudy.6 mph88%30.27 "Hg2 mi
6:00 PM59 °FThunderstorms. Passing clouds.2 mph77%30.26 "Hg4 mi
5:00 PM63 °FScattered showers. Partly sunny.14 mph68%30.24 "Hg6 mi
Weather by CustomWeather, © 2014

See weather overviewHow to use our weather pages